Flag for Senegal Weather past 2 weeks in Thiès, Senegal

Now
70 °F

Passing clouds.


Feels Like: 70 °F
Forecast: N/A
Wind: 9 mph from Northwest

Location: Dakar / Yoff

Current Time: Apr 27, 2015 at 10:53:23 PM

Latest Report: Apr 27, 2015 at 10:00 PM


Visibility: N/A

Pressure: 29.89 "Hg

Humidity: 83%

Dew point: 64 °F

Location of ThièsLocation

Historic Weather in Thiès — Graph

°F

Thiès temperature yesterday

Maximum temperature yesterday: 77 °F (at 12:00 PM)
Minimum temperature yesterday: 66 °F (at 3:30 AM)
Average temperature yesterday: 71 °F

Past Weeks' High & Low Weather Summary

 TemperatureHumidityPressure
High79 °F (Apr 25, 1:00 PM)100% (Apr 18, 8:30 AM)29.98 "Hg (Apr 18, 8:30 AM)
Low64 °F (Apr 25, 3:00 AM)57% (Apr 26, 12:00 PM)29.80 "Hg (Apr 15, 4:00 PM)
Average70 °F83%29.87 "Hg
* Reported Apr 12 9:00 PM — Apr 27 9:30 PM, Thiès, Weather by CustomWeather, © 2015

Note: Actual official high and low records may vary slightly from our data, if they occured in-between our weather recording intervals... More about our weather records

Advertising

Thiès weather history for previous 24 hours

 ConditionsComfort  
Time TempWeatherWind HumidityBarometerVisibility
9:30 PM
Mon, Apr 27
70 °FPassing clouds.7 mph83%29.89 "HgN/A
9:00 PM70 °FPassing clouds.9 mph83%29.89 "HgN/A
8:30 PM70 °FPassing clouds.9 mph83%29.86 "HgN/A
8:00 PM70 °FPassing clouds.7 mph83%29.86 "HgN/A
7:30 PM72 °FPassing clouds.10 mph78%29.86 "HgN/A
7:00 PM73 °FPartly sunny.10 mph74%29.83 "HgN/A
6:30 PM73 °FPartly sunny.10 mph74%29.86 "HgN/A
6:00 PM75 °FPartly sunny.10 mph74%29.83 "HgN/A
5:30 PM75 °FPartly sunny.9 mph74%29.83 "HgN/A
5:00 PM75 °FPartly sunny.9 mph74%29.83 "HgN/A
4:30 PM77 °FPartly sunny.10 mph69%29.86 "HgN/A
4:00 PM77 °FPartly sunny.10 mph69%29.86 "HgN/A
3:30 PM77 °FPassing clouds.9 mph69%29.86 "HgN/A
3:00 PM77 °FPassing clouds.9 mph69%29.86 "HgN/A
2:30 PM77 °FPassing clouds.10 mph69%29.86 "HgN/A
2:00 PM79 °FPassing clouds.8 mph65%29.86 "HgN/A
1:30 PM77 °FPassing clouds.10 mph65%29.89 "HgN/A
12:30 PM79 °FPassing clouds.7 mph61%29.89 "HgN/A
12:00 PM77 °FPassing clouds.7 mph65%29.89 "HgN/A
11:30 AM77 °FPassing clouds.7 mph65%29.92 "HgN/A
11:00 AM77 °FPassing clouds.6 mph65%29.92 "HgN/A
10:30 AM75 °FPassing clouds.7 mph65%29.92 "HgN/A
10:00 AM75 °FPassing clouds.7 mph69%29.92 "HgN/A
9:30 AM73 °FPassing clouds.7 mph74%29.89 "HgN/A
9:00 AM72 °FPassing clouds.5 mph83%29.89 "HgN/A
8:30 AM68 °FSunny.3 mph94%29.89 "Hg10 mi
8:00 AM68 °FSunny.1 mph94%29.89 "Hg10 mi
7:30 AM66 °FSunny.1 mph94%29.89 "Hg10 mi
7:00 AM64 °FSunny.2 mph100%29.86 "Hg10 mi
6:30 AM64 °FClear.1 mph94%29.86 "Hg10 mi
6:00 AM64 °FClear.2 mph94%29.86 "Hg10 mi
5:30 AM64 °FClear.No wind94%29.86 "Hg10 mi
5:00 AM66 °FClear.2 mph94%29.83 "Hg10 mi
4:30 AM66 °FClear.5 mph94%29.83 "Hg10 mi
4:00 AM66 °FClear.5 mph94%29.86 "Hg10 mi
3:30 AM66 °FClear.5 mph94%29.86 "Hg10 mi
3:00 AM66 °FClear.7 mph94%29.86 "Hg10 mi
2:30 AM68 °FClear.7 mph88%29.86 "Hg10 mi
2:00 AM68 °FClear.7 mph88%29.89 "Hg10 mi
1:30 AM68 °FClear.8 mph94%29.89 "Hg10 mi
1:00 AM68 °FClear.8 mph94%29.89 "Hg10 mi
12:30 AM68 °FClear.10 mph94%29.92 "Hg10 mi
12:00 AM68 °FClear.9 mph94%29.92 "Hg10 mi
11:30 PM
Sun, Apr 26
68 °FClear.9 mph94%29.89 "Hg10 mi
11:00 PM68 °FClear.10 mph94%29.89 "Hg10 mi
10:30 PM68 °FClear.9 mph88%29.89 "Hg10 mi
10:00 PM70 °FClear.9 mph83%29.89 "Hg10 mi
Weather by CustomWeather, © 2015

See weather overviewHow to use our weather pages